This demonstration page uses our WeatherBlox Daily Observations layout. Learn more.

Left ArrowRight Arrow

34.02893, -84.19858

Hourly Observations for February 5, 2022

Temp ( °F °C ) Dew Point ( °F °C ) Humidity (%) Winds ( mph kmh ) Pressure ( in mb ) Visibility ( mi km ) Precip ( " mm )
12:06 am 00:06 Mostly Cloudy 33 0.6 28 -2.2 82 82 WNW 10 17 30.33 1027 10 16 0.00 0.00
12:53 am 00:53 Cloudy 33 0.6 28 -2.2 82 82 NW 14 22 30.32 1027 10 16 0.00 0.00
1:53 am 01:53 Cloudy 32 0 27 -2.8 82 82 NW 14 22 30.34 1027 10 16 0.00 0.00
2:53 am 02:53 Cloudy 32 0 26 -3.3 79 79 NW 21 33 30.35 1028 10 16 0.00 0.00
4:53 am 04:53 Clear 30 -1.1 21 -6.1 69 69 NW 12 19 30.36 1028 10 16 0.00 0.00
5:53 am 05:53 Clear 29 -1.7 20 -6.7 69 69 NW 12 19 30.38 1029 10 16 0.00 0.00
6:53 am 06:53 Clear 29 -1.7 19 -7.2 66 66 NNW 14 22 30.40 1029 10 16 0.00 0.00
7:53 am 07:53 Sunny 28 -2.2 19 -7.2 69 69 NNW 10 17 30.41 1030 10 16 0.00 0.00
8:53 am 08:53 Sunny 31 -0.6 20 -6.7 64 64 N 14 22 30.43 1030 10 16 0.00 0.00
9:53 am 09:53 Sunny 33 0.6 20 -6.7 58 58 NW 10 17 30.43 1031 10 16 0.00 0.00
10:53 am 10:53 Sunny 36 2.2 19 -7.2 50 50 NNW 10 17 30.45 1031 10 16 0.00 0.00
11:53 am 11:53 Sunny 38 3.3 17 -8.3 43 43 N 10 17 30.43 1031 10 16 0.00 0.00
12:53 pm 12:53 Sunny 41 5 17 -8.3 38 38 NW 10 17 30.40 1029 10 16 0.00 0.00
1:53 pm 13:53 Sunny 43 6.1 17 -8.3 35 35 NW 12 19 30.37 1028 10 16 0.00 0.00
2:53 pm 14:53 Sunny 46 7.8 15 -9.4 29 29 N 10 17 30.35 1028 10 16 0.00 0.00
3:53 pm 15:53 Sunny 47 8.3 14 -10 26 26 Calm 30.35 1028 10 16 0.00 0.00
4:53 pm 16:53 Sunny 46 7.8 14 -10 27 27 VRB 7 11 30.35 1028 10 16 0.00 0.00
5:53 pm 17:53 Sunny 42 5.6 19 -7.2 40 40 NNW 8 13 30.36 1028 10 16 0.00 0.00
6:53 pm 18:53 Clear 38 3.3 19 -7.2 46 46 NNW 7 11 30.37 1029 10 16 0.00 0.00
7:53 pm 19:53 Clear 37 2.8 19 -7.2 48 48 NW 6 9 30.39 1029 10 16 0.00 0.00
8:53 pm 20:53 Clear 35 1.7 19 -7.2 52 52 Calm 30.40 1029 10 16 0.00 0.00
9:53 pm 21:53 Clear 31 -0.6 21 -6.1 67 67 Calm 30.41 1030 10 16 0.00 0.00
10:53 pm 22:53 Clear 31 -0.6 20 -6.7 64 64 Calm 30.40 1030 10 16 0.00 0.00
11:53 pm 23:53 Clear 29 -1.7 20 -6.7 69 69 Calm 30.39 1029 10 16 0.00 0.00

Powered by AerisWeather